Tracking 30260 objects as of 15-Feb-2025
HD Live streaming from Space Station
objects crossing your sky now

STARLINK-32681

Track STARLINK-32681 now!
10-day predictions
STARLINK-32681 is classified as:


NORAD ID: 62506
Int'l Code: 2025-003V
Perigee: 334.2 km
Apogee: 336.1 km
Inclination: 43.0 °
Period: 91.1 minutes
Semi major axis: 6706 km
RCS: Unknown
Launch date: January 6, 2025
Source: United States (US)
Launch site: AIR FORCE EASTERN TEST RANGE (AFETR)
Your satellite tracking list
Your tracking list is empty




NASA's NSSDC Master Catalog

Two Line Element Set (TLE):
1 62506U 25003V   25045.44716796  .00000678  00000-0  60190-5 0  9991
2 62506  42.9970 316.2408 0001463   3.5175 356.5706 15.80859766  7353
Source of the keplerian elements: AFSPC